• en Suisse
  • Liste des pays
  • À 7 jours
  • Température de l'eau
  • Carte satellitaire
  • Carte météo
  • Widgets météo
  • user-avatar
    Se connecter

    Météo par heure à Morpeth

    Ce jour, 21 Février, Mercredi

    Heure Température Précipitation Vent Pression Humidité
    00:00 +1°C° 0 mm 4 m/s 766 mmHg 91%
    01:00 +1°C° 0 mm 4 m/s 766 mmHg 91%
    02:00 +2°C° 0 mm 3 m/s 766 mmHg 92%
    03:00 +2°C° 0 mm 3 m/s 766 mmHg 92%
    04:00 +1°C° 0 mm 3 m/s 766 mmHg 92%
    05:00 +1°C° 0 mm 3 m/s 766 mmHg 91%
    06:00 +1°C° 0 mm 3 m/s 766 mmHg 91%
    07:00 +1°C° 0 mm 3 m/s 766 mmHg 88%
    08:00 +2°C° 0 mm 3 m/s 766 mmHg 86%
    09:00 +2°C° 0 mm 3 m/s 766 mmHg 84%
    10:00 +3°C° 0 mm 3 m/s 766 mmHg 79%
    11:00 +5°C° 0 mm 3 m/s 766 mmHg 75%
    12:00 +7°C° 0 mm 2 m/s 766 mmHg 70%
    13:00 +7°C° 0 mm 2 m/s 766 mmHg 69%
    14:00 +7°C° 0 mm 2 m/s 765 mmHg 68%
    15:00 +7°C° 0 mm 2 m/s 765 mmHg 66%
    16:00 +6°C° 0 mm 2 m/s 765 mmHg 73%
    17:00 +4°C° 0 mm 2 m/s 765 mmHg 79%
    18:00 +3°C° 0 mm 2 m/s 765 mmHg 86%
    19:00 +3°C° 0 mm 2 m/s 765 mmHg 87%
    20:00 +4°C° 0 mm 1 m/s 765 mmHg 89%
    21:00 +3°C° 0 mm 1 m/s 765 mmHg 91%
    22:00 +3°C° 0 mm 1 m/s 765 mmHg 91%
    23:00 +2°C° 0 mm 2 m/s 765 mmHg 92%

    Demain, 22 Février, Jeudi

    Heure Température Précipitation Vent Pression Humidité
    00:00 +2°C° 0 mm 2 m/s 765 mmHg 93%
    01:00 +2°C° 0 mm 2 m/s 765 mmHg 93%
    02:00 +2°C° 0 mm 2 m/s 764 mmHg 94%
    03:00 +2°C° 0 mm 2 m/s 764 mmHg 94%
    04:00 +2°C° 0 mm 2 m/s 764 mmHg 94%
    05:00 +2°C° 0 mm 2 m/s 764 mmHg 94%
    06:00 0°C° 0 mm 3 m/s 763 mmHg 93%
    07:00 +1°C° 0 mm 3 m/s 763 mmHg 90%
    08:00 +1°C° 0 mm 3 m/s 763 mmHg 88%
    09:00 +1°C° 0 mm 4 m/s 763 mmHg 85%
    10:00 +3°C° 0 mm 4 m/s 763 mmHg 80%
    11:00 +3°C° 0 mm 4 m/s 763 mmHg 75%
    12:00 +3°C° 0 mm 5 m/s 763 mmHg 70%
    13:00 +3°C° 0 mm 5 m/s 763 mmHg 69%
    14:00 +5°C° 0 mm 5 m/s 762 mmHg 68%
    15:00 +5°C° 0 mm 5 m/s 762 mmHg 67%
    16:00 +2°C° 0 mm 5 m/s 762 mmHg 72%
    17:00 +1°C° 0 mm 5 m/s 762 mmHg 76%
    18:00 0°C° 0 mm 4 m/s 762 mmHg 81%
    19:00 0°C° 0 mm 4 m/s 762 mmHg 82%
    20:00 -1°C° 0 mm 4 m/s 762 mmHg 84%
    21:00 -1°C° 0 mm 4 m/s 762 mmHg 85%
    22:00 -1°C° 0 mm 5 m/s 762 mmHg 85%
    23:00 -1°C° 0 mm 5 m/s 762 mmHg 85%

    Après-demain, 23 Février, Vendredi

    Heure Température Précipitation Vent Pression Humidité
    00:00 -2°C° 0 mm 5 m/s 762 mmHg 85%
    01:00 -2°C° 0 mm 5 m/s 762 mmHg 84%
    02:00 -2°C° 0 mm 5 m/s 762 mmHg 84%
    03:00 -2°C° 0 mm 5 m/s 762 mmHg 84%
    04:00 -2°C° 0 mm 4 m/s 762 mmHg 82%
    05:00 -2°C° 0 mm 4 m/s 762 mmHg 81%
    06:00 -2°C° 0 mm 4 m/s 762 mmHg 80%
    07:00 -2°C° 0 mm 4 m/s 762 mmHg 76%
    08:00 -1°C° 0 mm 5 m/s 762 mmHg 72%
    09:00 0°C° 0 mm 5 m/s 762 mmHg 67%
    10:00 +1°C° 0 mm 5 m/s 762 mmHg 64%
    11:00 +2°C° 0 mm 6 m/s 762 mmHg 61%
    12:00 +3°C° 0 mm 6 m/s 762 mmHg 58%
    13:00 +3°C° 0 mm 6 m/s 762 mmHg 59%
    14:00 +3°C° 0 mm 6 m/s 762 mmHg 61%
    15:00 +3°C° 0 mm 6 m/s 762 mmHg 62%
    16:00 +2°C° 0 mm 6 m/s 762 mmHg 67%
    17:00 +1°C° 0 mm 6 m/s 761 mmHg 71%
    18:00 -1°C° 0 mm 6 m/s 761 mmHg 76%
    19:00 -1°C° 0 mm 6 m/s 762 mmHg 78%
    20:00 -1°C° 0 mm 6 m/s 762 mmHg 80%
    21:00 -2°C° 0 mm 6 m/s 762 mmHg 83%
    22:00 -2°C° 0 mm 6 m/s 762 mmHg 84%
    23:00 -2°C° 0 mm 6 m/s 762 mmHg 85%

    24 Février, Samedi

    Heure Température Précipitation Vent Pression Humidité
    00:00 -2°C° 0 mm 6 m/s 762 mmHg 86%
    01:00 -2°C° 0 mm 6 m/s 762 mmHg 84%
    02:00 -2°C° 0 mm 6 m/s 762 mmHg 81%
    03:00 -2°C° 0 mm 6 m/s 762 mmHg 79%
    04:00 -2°C° 0 mm 6 m/s 762 mmHg 77%
    05:00 -2°C° 0 mm 6 m/s 762 mmHg 75%
    06:00 -2°C° 0 mm 6 m/s 762 mmHg 73%
    07:00 -2°C° 0 mm 7 m/s 762 mmHg 70%
    08:00 -1°C° 0 mm 8 m/s 763 mmHg 67%
    09:00 0°C° 0 mm 8 m/s 763 mmHg 64%
    10:00 0°C° 0 mm 9 m/s 763 mmHg 62%
    11:00 +1°C° 0 mm 9 m/s 764 mmHg 59%
    12:00 +2°C° 0 mm 9 m/s 764 mmHg 56%
    13:00 +2°C° 0 mm 9 m/s 764 mmHg 58%
    14:00 +2°C° 0 mm 9 m/s 764 mmHg 59%
    15:00 +2°C° 0 mm 9 m/s 764 mmHg 60%
    16:00 +1°C° 0 mm 9 m/s 764 mmHg 66%
    17:00 0°C° 0 mm 8 m/s 764 mmHg 72%
    18:00 -1°C° 0 mm 8 m/s 765 mmHg 78%
    19:00 -1°C° 0 mm 8 m/s 765 mmHg 78%
    20:00 -1°C° 0 mm 8 m/s 766 mmHg 79%
    21:00 -1°C° 0 mm 8 m/s 766 mmHg 80%
    22:00 -1°C° 0 mm 8 m/s 766 mmHg 80%
    23:00 -1°C° 0 mm 7 m/s 766 mmHg 80%

    25 Février, Dimanche

    Heure Température Précipitation Vent Pression Humidité
    00:00 -1°C° 0 mm 7 m/s 767 mmHg 80%
    01:00 -2°C° 0 mm 7 m/s 767 mmHg 79%
    02:00 -2°C° 0 mm 7 m/s 767 mmHg 79%
    03:00 -2°C° 0 mm 7 m/s 767 mmHg 78%
    04:00 -2°C° 0 mm 7 m/s 767 mmHg 77%
    05:00 -2°C° 0 mm 7 m/s 767 mmHg 77%
    06:00 -3°C° 0 mm 7 m/s 767 mmHg 77%
    07:00 -2°C° 0 mm 7 m/s 767 mmHg 74%
    08:00 -2°C° 0 mm 8 m/s 768 mmHg 72%
    09:00 -1°C° 0 mm 8 m/s 768 mmHg 69%
    10:00 -1°C° 0 mm 8 m/s 768 mmHg 66%
    11:00 0°C° 0 mm 8 m/s 768 mmHg 64%
    12:00 0°C° 0 mm 8 m/s 769 mmHg 61%
    13:00 0°C° 0 mm 8 m/s 769 mmHg 62%
    14:00 0°C° 0 mm 8 m/s 768 mmHg 62%
    15:00 0°C° 0 mm 8 m/s 768 mmHg 62%
    16:00 -1°C° 0 mm 7 m/s 769 mmHg 66%
    17:00 -2°C° 0 mm 7 m/s 769 mmHg 69%
    18:00 -3°C° 0 mm 6 m/s 769 mmHg 73%
    19:00 -3°C° 0 mm 6 m/s 769 mmHg 74%
    20:00 -3°C° 0 mm 6 m/s 770 mmHg 76%
    21:00 -3°C° 0 mm 6 m/s 770 mmHg 77%
    22:00 -3°C° 0 mm 6 m/s 770 mmHg 77%
    23:00 -3°C° 0 mm 6 m/s 770 mmHg 77%

    26 Février, Lundi

    Heure Température Précipitation Vent Pression Humidité
    00:00 -2°C° 0 mm 5 m/s 770 mmHg 77%
    01:00 -2°C° 0 mm 5 m/s 770 mmHg 78%
    02:00 -2°C° 0 mm 5 m/s 770 mmHg 78%
    03:00 -2°C° 0 mm 4 m/s 770 mmHg 78%
    04:00 -2°C° 0 mm 4 m/s 770 mmHg 78%
    05:00 -2°C° 0 mm 4 m/s 770 mmHg 77%
    06:00 -2°C° 0 mm 4 m/s 770 mmHg 77%
    07:00 -2°C° 0 mm 4 m/s 770 mmHg 73%
    08:00 -1°C° 0 mm 5 m/s 770 mmHg 69%
    09:00 0°C° 0 mm 5 m/s 770 mmHg 66%
    10:00 0°C° 0 mm 5 m/s 770 mmHg 63%
    11:00 -1°C° 0 mm 6 m/s 770 mmHg 61%
    12:00 +1°C° 0 mm 6 m/s 770 mmHg 59%
    13:00 +1°C° 0 mm 6 m/s 769 mmHg 59%
    14:00 0°C° 0 mm 5 m/s 769 mmHg 59%
    15:00 0°C° 0 mm 5 m/s 769 mmHg 60%
    16:00 -1°C° 0 mm 5 m/s 768 mmHg 64%
    17:00 -1°C° 0 mm 4 m/s 768 mmHg 68%
    18:00 -2°C° 0 mm 4 m/s 768 mmHg 73%
    19:00 -2°C° 0 mm 4 m/s 768 mmHg 74%
    20:00 -2°C° 0 mm 3 m/s 768 mmHg 75%
    21:00 -2°C° 0 mm 3 m/s 768 mmHg 77%
    22:00 -2°C° 0 mm 3 m/s 768 mmHg 77%
    23:00 -2°C° 0 mm 2 m/s 767 mmHg 77%
    Voir plus